Regional Weather Roundup
Issued by NWS Jackson, KY

Home | Current Version | Previous Version | Graphics & Text | Print | Product List | Glossary On
Versions: 1 2 3 4 5 6 7 8 9 10 11 12 13 14 15 16 17 18 19 20 21 22 23 24 25 26 27 28 29 30 31 32 33 34 35 36 37 38 39 40 41 42 43 44 45 46 47 48 49 50
000
ASUS43 KJKL 260219
RWRJKL

EAST KENTUCKY HOURLY WEATHER ROUNDUP
NATIONAL WEATHER SERVICE JACKSON KY
1000 PM EDT SAT OCT 25 2014

NOTE: "FAIR" INDICATES FEW OR NO CLOUDS BELOW 12,000 FEET WITH
NO SIGNIFICANT WEATHER AND/OR OBSTRUCTIONS TO VISIBILITY.

* THESE REPORTS ARE NOT UNDER NWS QUALITY CONTROL AND MAY NOT
  REPORT WEATHER SUCH AS PRECIPITATION AND FOG.

KYZ079-080-083-085-087-088-110-112-115-119-120-260300
...EASTERN KENTUCKY...

CITY           SKY/WX    TMP DP  RH WIND       PRES   REMARKS
JACKSON        CLEAR     60  53  77 VRB3      29.98S
LONDON         CLEAR     56  52  86 CALM      30.01S
SOMERSET*      CLEAR     55  55 100 CALM      30.03R
MONTICELLO*    CLEAR     49  47  93 CALM      30.04R FOG
MIDDLESBORO*   CLEAR     51  50  97 CALM      30.03S FOG
HARLAN APT*    CLEAR     52  52 100 MISG      30.03R
BLACK MTN*       N/A     52  50  93 SW3         N/A
PIKEVILLE APT* CLEAR     59  52  77 SW5       29.96
BIG SANDY*     CLEAR     61  54  77 SW5       29.96S
MOREHEAD APT*  CLEAR     61  57  88 SW7       29.97S
ASHLAND*       MOCLDY    54  48  82 CALM      29.88S VSB 1/2
$$

KYZ035-036-041-042-044-050-067-078-099-260300
...CENTRAL KENTUCKY...

CITY           SKY/WX    TMP DP  RH WIND       PRES   REMARKS
MT STERLING*   CLEAR     61  57  88 W7        29.98R
FLEMING/MASON* CLEAR     61  55  82 SW9       29.94S
DANVILLE*      CLEAR     59  55  88 SW6       30.01R
RICHMOND*      CLEAR     61  55  82 SW9       29.98S
LEXINGTON      CLEAR     62  56  80 SW8       29.97S
FRANKFORT      CLEAR     63  56  78 W6        29.95S
$$

KYZ091>093-OHZ055-061-077-WVZ005-015-034-035-042-260300
...SOUTHERN OHIO/WEST VIRGINIA...

CITY           SKY/WX    TMP DP  RH WIND       PRES   REMARKS
COVINGTON      PTCLDY    66  50  56 W9        29.92S
COLUMBUS       CLEAR     60  41  49 W10       29.85S
DAYTON         CLEAR     60  46  59 W9        29.90S
WILMINGTON     CLEAR     62  50  64 W7        29.89R
HUNTINGTON     CLEAR     59  55  87 SW6       29.91S
CHARLESTON     CLEAR     60  50  69 SW9       29.90S
PINEVILLE*     CLEAR     49  48  97 MISG      30.01S
BECKLEY        CLEAR     54  47  77 W6        29.94F
BLUEFIELD      MOCLDY    58  47  66 W13       29.98S
$$

VAZ002-007-008-TNZ017-027-036-066-071-260300
...SOUTHWEST VIRGINIA/EAST TENNESSEE...

CITY           SKY/WX    TMP DP  RH WIND       PRES   REMARKS
WISE*          CLEAR     55  46  71 SW7       30.03R
JONESVILLE*    CLEAR     48  48 100 CALM      30.04S
ABINGDON*      CLEAR     55  48  80 CALM      30.02S
BRISTOL        PTCLDY    57  48  72 SW5       30.01F
KNOXVILLE      PTCLDY    60  50  69 SW3       30.03S
OAK RIDGE      CLEAR     56  52  86 CALM      30.04R
CROSSVILLE     CLEAR     57  53  86 CALM      30.06S
NASHVILLE      CLEAR     64  61  90 CALM      30.03R
$$

...KEY TO REMARKS...
VSB - VISIBILITY IN MILES
WCI - WIND CHILL INDEX
HX  - HEAT INDEX

$$



USA.gov is the U.S. government's official web portal to all federal, state and local government web resources and services.